Fort Meade, MD

1:26 AM EDT on April 27, 2017 (GMT -0400)
Tipton

Weather History for KFME - September, 2013

Change the Weather History Date:

Friday, September 20, 2013

  Actual Average (KBWI) Record (KBWI)
Temperature  
Mean Temperature 62 °F -  
Max Temperature 78 °F 78 °F 92 °F (1983)
Min Temperature 46 °F 59 °F 42 °F (1956)
Degree Days  
Heating Degree Days 3    
Growing Degree Days 12 (Base 50)    
Moisture  
Dew Point 53 °F    
Average Humidity 77    
Maximum Humidity 100    
Minimum Humidity 44    
Precipitation  
Precipitation 0.00 in - - ()
Sea Level Pressure  
Sea Level Pressure 30.07 in    
Wind  
Wind Speed 2 mph (SSE)    
Max Wind Speed 10 mph    
Max Gust Speed 16 mph    
Visibility 10 miles    
Events      
Averages and records for this station are not official NWS values.
T = Trace of Precipitation, MM = Missing Value Source: NWS Daily Summary

Daily Weather History Graph

Daily Weather History Graph

Search for Another Location

Airport or City:

Trip Planner

Search our weather history database for the weather conditions in past years. The results will help you decide how hot, cold, wet, or windy it might be!

Date:

Astronomy

Sep. 20, 2013 Rise Set
Actual Time 6:53 AM EDT 7:06 PM EDT
Civil Twilight 6:26 AM EDT 7:33 PM EDT
Nautical Twilight 5:55 AM EDT 8:04 PM EDT
Astronomical Twilight 5:23 AM EDT 8:36 PM EDT
Moon 7:40 PM EDT (9/20) 8:04 AM EDT (9/20)
Length of Visible Light 13h 07m
Length of Day
12h 13m
Full, 98% of the Moon is Illuminated
Sep 20
Full
Sep 26
Last Quarter
Oct 4
New
Oct 11
First Quarter
Oct 18
Full

Hourly Weather History & Observations

Time (EDT) Temp. Dew Point Humidity Pressure Visibility Wind Dir Wind Speed Gust Speed Precip Events Conditions
12:06 AM 51.8 °F 50.0 °F 94% 30.11 in 10.0 mi Calm Calm - N/A   Clear
12:24 AM 51.8 °F 50.0 °F 94% 30.11 in 10.0 mi Calm Calm - N/A   Clear
12:45 AM 51.8 °F 50.0 °F 94% 30.11 in 10.0 mi Calm Calm - N/A   Clear
1:06 AM 51.8 °F 50.0 °F 94% 30.11 in 10.0 mi Calm Calm - N/A   Clear
1:24 AM 50.0 °F 50.0 °F 100% 30.12 in 10.0 mi Calm Calm - N/A   Clear
1:45 AM 51.8 °F 50.0 °F 94% 30.13 in 10.0 mi Calm Calm - N/A   Clear
2:06 AM 50.0 °F 48.2 °F 94% 30.12 in 10.0 mi Calm Calm - N/A   Clear
2:24 AM 50.0 °F 48.2 °F 94% 30.12 in 10.0 mi Calm Calm - N/A   Clear
2:45 AM 50.0 °F 48.2 °F 94% 30.11 in 10.0 mi Calm Calm - N/A   Clear
3:06 AM 50.0 °F 46.4 °F 87% 30.11 in 10.0 mi Calm Calm - N/A   Clear
3:24 AM 50.0 °F 46.4 °F 87% 30.11 in 10.0 mi Calm Calm - N/A   Clear
3:45 AM 48.2 °F 46.4 °F 93% 30.11 in 10.0 mi Calm Calm - N/A   Clear
4:06 AM 48.2 °F 46.4 °F 93% 30.11 in 10.0 mi Calm Calm - N/A   Clear
4:27 AM 48.2 °F 46.4 °F 93% 30.11 in 10.0 mi Calm Calm - N/A   Clear
4:45 AM 48.2 °F 46.4 °F 93% 30.12 in 10.0 mi Calm Calm - N/A   Clear
5:06 AM 48.2 °F 46.4 °F 93% 30.12 in 10.0 mi Calm Calm - N/A   Clear
5:27 AM 46.4 °F 46.4 °F 100% 30.12 in 10.0 mi Calm Calm - N/A   Clear
5:45 AM 46.4 °F 46.4 °F 100% 30.12 in 10.0 mi Calm Calm - N/A   Clear
6:06 AM 46.4 °F 46.4 °F 100% 30.12 in 10.0 mi Calm Calm - N/A   Clear
6:27 AM 46.4 °F 44.6 °F 93% 30.12 in 10.0 mi Calm Calm - N/A   Clear
6:45 AM 46.4 °F 44.6 °F 93% 30.12 in 10.0 mi Calm Calm - N/A   Clear
7:06 AM 46.4 °F 44.6 °F 93% 30.12 in 10.0 mi Calm Calm - N/A   Clear
7:27 AM 46.4 °F 46.4 °F 100% 30.12 in 10.0 mi Calm Calm - N/A   Clear
7:45 AM 48.2 °F 46.4 °F 93% 30.12 in 10.0 mi Calm Calm - N/A   Clear
8:06 AM 50.0 °F 48.2 °F 94% 30.12 in 10.0 mi Calm Calm - N/A   Clear
8:27 AM 51.8 °F 50.0 °F 94% 30.12 in 10.0 mi Calm Calm - N/A   Clear
8:45 AM 53.6 °F 53.6 °F 100% 30.12 in 10.0 mi Calm Calm - N/A   Clear
9:06 AM 59.0 °F 55.4 °F 88% 30.12 in 10.0 mi Calm Calm - N/A   Clear
9:27 AM 60.8 °F 57.2 °F 88% 30.12 in 10.0 mi SSW 3.5 mph - N/A   Clear
9:45 AM 62.6 °F 55.4 °F 77% 30.12 in 10.0 mi SSW 3.5 mph - N/A   Clear
10:06 AM 66.2 °F 55.4 °F 68% 30.12 in 10.0 mi South 4.6 mph - N/A   Clear
10:27 AM 68.0 °F 57.2 °F 68% 30.11 in 10.0 mi Calm Calm - N/A   Clear
10:45 AM 69.8 °F 57.2 °F 64% 30.11 in 10.0 mi SSE 4.6 mph - N/A   Clear
11:06 AM 71.6 °F 57.2 °F 60% 30.11 in 10.0 mi SSE 5.8 mph - N/A   Clear
11:27 AM 73.4 °F 55.4 °F 53% 30.10 in 10.0 mi SSW 5.8 mph - N/A   Clear
11:45 AM 73.4 °F 55.4 °F 53% 30.10 in 10.0 mi SSW 5.8 mph - N/A   Clear
12:06 PM 73.4 °F 55.4 °F 53% 30.09 in 10.0 mi SSW 5.8 mph - N/A   Clear
12:27 PM 75.2 °F 55.4 °F 50% 30.08 in 10.0 mi SW 4.6 mph - N/A   Clear
12:48 PM 75.2 °F 55.4 °F 50% 30.08 in 10.0 mi SE 6.9 mph - N/A   Scattered Clouds
1:06 PM 77.0 °F 55.4 °F 47% 30.08 in 10.0 mi East 6.9 mph - N/A   Clear
1:27 PM 77.0 °F 55.4 °F 47% 30.06 in 10.0 mi SW 3.5 mph - N/A   Scattered Clouds
1:48 PM 78.8 °F 55.4 °F 44% 30.06 in 10.0 mi South 6.9 mph - N/A   Scattered Clouds
2:06 PM 78.8 °F 55.4 °F 44% 30.06 in 10.0 mi South 4.6 mph - N/A   Scattered Clouds
2:27 PM 78.8 °F 55.4 °F 44% 30.05 in 10.0 mi SE 8.1 mph - N/A   Clear
2:48 PM 77.0 °F 55.4 °F 47% 30.05 in 10.0 mi SSE 6.9 mph - N/A   Scattered Clouds
3:06 PM 78.8 °F 57.2 °F 47% 30.05 in 10.0 mi South 9.2 mph - N/A   Mostly Cloudy
3:27 PM 78.8 °F 57.2 °F 47% 30.03 in 10.0 mi SE 8.1 mph - N/A   Scattered Clouds
3:48 PM 78.8 °F 57.2 °F 47% 30.03 in 10.0 mi SE 8.1 mph 16.1 mph N/A   Scattered Clouds
4:06 PM 77.0 °F 59.0 °F 54% 30.03 in 10.0 mi SE 6.9 mph - N/A   Clear
4:27 PM 77.0 °F 59.0 °F 54% 30.02 in 10.0 mi SE 10.4 mph - N/A   Scattered Clouds
4:48 PM 75.2 °F 59.0 °F 57% 30.02 in 10.0 mi SE 9.2 mph - N/A   Scattered Clouds
5:06 PM 75.2 °F 59.0 °F 57% 30.01 in 10.0 mi SE 10.4 mph - N/A   Clear
5:27 PM 73.4 °F 59.0 °F 61% 30.01 in 10.0 mi SE 9.2 mph - N/A   Clear
5:48 PM 73.4 °F 59.0 °F 61% 30.01 in 10.0 mi SE 8.1 mph - N/A   Clear
6:06 PM 71.6 °F 59.0 °F 64% 30.01 in 10.0 mi SE 6.9 mph - N/A   Clear
6:27 PM 71.6 °F 59.0 °F 64% 30.00 in 10.0 mi SE 8.1 mph - N/A   Clear
6:48 PM 69.8 °F 59.0 °F 68% 30.00 in 10.0 mi SSE 4.6 mph - N/A   Clear
7:06 PM 68.0 °F 59.0 °F 73% 30.00 in 10.0 mi SSE 6.9 mph - N/A   Clear
7:27 PM 66.2 °F 57.2 °F 73% 30.00 in 10.0 mi SSE 3.5 mph - N/A   Clear
7:48 PM 62.6 °F 57.2 °F 82% 30.00 in 10.0 mi SE 3.5 mph - N/A   Clear
8:06 PM 62.6 °F 57.2 °F 82% 30.01 in 10.0 mi SE 3.5 mph - N/A   Clear
8:27 PM 60.8 °F 57.2 °F 88% 30.01 in 10.0 mi SE 3.5 mph - N/A   Clear
8:48 PM 60.8 °F 57.2 °F 88% 30.02 in 10.0 mi SSE 3.5 mph - N/A   Clear
9:09 PM 59.0 °F 55.4 °F 88% 30.02 in 10.0 mi Calm Calm - N/A   Clear
9:27 PM 59.0 °F 55.4 °F 88% 30.02 in 10.0 mi SSE 4.6 mph - N/A   Clear
9:48 PM 59.0 °F 55.4 °F 88% 30.02 in 10.0 mi Calm Calm - N/A   Clear
10:09 PM 59.0 °F 55.4 °F 88% 30.02 in 10.0 mi Calm Calm - N/A   Clear
10:27 PM 57.2 °F 55.4 °F 94% 30.02 in 10.0 mi Calm Calm - N/A   Clear
10:48 PM 57.2 °F 55.4 °F 94% 30.03 in 10.0 mi Calm Calm - N/A   Scattered Clouds
11:09 PM 57.2 °F 53.6 °F 88% 30.02 in 10.0 mi Calm Calm - N/A   Scattered Clouds
11:27 PM 57.2 °F 53.6 °F 88% 30.02 in 10.0 mi Calm Calm - N/A   Scattered Clouds
11:48 PM 55.4 °F 53.6 °F 94% 30.02 in 10.0 mi Calm Calm - N/A   Clear